Location: IoMAS Observatory
(54.1780°N, 4.6265°W)
Time: 19:52:43
(UTC+01:00)

ISS - Pass Details

Date: 01 December 2021
Orbit: 413 x 422 km, 51.6° (Epoch: 23 January)

Event Time Altitude Azimuth Distance (km) Brightness Sun altitude
Rises 20:10:20 0° 277° (W) 2,384 1.4 -26.7°
Reaches altitude 10° 20:12:37 10° 266° (W) 1,514 0.1 -27.0°
Enters shadow 20:14:16 21° 243° (WSW) 1,002 -1.3 -27.3°
